サイディング・スプリング彗星

P/2004 V3 ( Siding Spring )

English version
Home page
Updated on November 6, 2005

---------------------------------------------------------------------

・ プロフィール

発見日 2004年11月3日
発見光度 18.8等
発見者 Siding Spring Survey

・ 軌道要素

Epoch 2004 Nov. 11.0 TT = JDT 2453320.5
T 2004 Nov. 11.34514 TT                                 MPC
q   3.9382484            (2000.0)            P               Q
n   0.05196981     Peri.  322.36574     +0.76359251     +0.64355716
a   7.1116219      Node   356.09291     -0.21809180     +0.18046627
e   0.4462236      Incl.   50.45297     -0.60775197     +0.74381860
P  18.97

・ 星図

・ 光度変化

        m1 = 9.7 + 5 logΔ + 10.0 log r

---------------------------------------------------------------------

軌道要素はM.P.E.C. 2005-V14に掲載されたものです。
星図は StellaNavigator Ver.2.0 for Windows (アストロアーツ 編著 / アスキー出版局刊) で作成したものです。
光度グラフはComet for Windowsで作成したものです。

---------------------------------------------------------------------

Copyright(C) Seiichi Yoshida (comet@aerith.net). All rights reserved.